Location: Moscow Pond
(43.6842°N, 73.2366°W)
Time: 06:30:58
(UTC+00:00)

Timation 2 Rocket - Pass Details

Date: 08 November 2025
Orbit: 904 x 1075 km, 70.0° (Epoch: 06 December)

Event Time Altitude Azimuth Distance (km) Brightness Sun altitude
Exits shadow 09:29:49 11° 337° (NNW) 2,755 6.1 -23.4°
Maximum altitude 09:36:14 73° 62° (ENE) 1,053 4.2 -22.3°
Drops below altitude 10° 09:42:35 10° 147° (SSE) 2,718 6.8 -21.1°
Sets 09:45:04 0° 149° (SSE) 3,636 7.5 -20.7°
